Regional Weather Roundup
Issued by NWS

Home | Current Version | Previous Version | Graphics & Text | Print | Product List | Glossary Off
Versions: 1 2 3 4 5 6 7 8 9 10 11 12 13 14 15 16 17 18 19 20 21 22 23 24 25 26 27 28 29 30 31 32 33 34 35 36 37 38 39 40 41 42 43 44 45 46 47 48 49 50

000
ASUS43 KMKX 201900
RWRWI

WISCONSIN REGIONAL WEATHER ROUNDUP
NATIONAL WEATHER SERVICE MILWAUKEE/SULLIVAN WI
200 PM CDT SAT SEP 20 2014

NOTE: "FAIR" INDICATES FEW OR NO CLOUDS BELOW 12,000 FEET WITH NO
SIGNIFICANT WEATHER AND/OR OBSTRUCTIONS TO VISIBILITY.

WIZ001-002-006>008-014>016-023>028-202000-
NORTHWEST WISCONSIN

CITY           SKY/WX    TMP DP  RH WIND       PRES   REMARKS
SUPERIOR ARPT  SUNNY     69  52  54 W8G18     29.72F
ASHLAND        MOSUNNY   65  54  67 NW7       29.72F
HAYWARD        MOSUNNY   70  53  54 W9        29.74F
SIREN          SUNNY     67  52  58 W12       29.77F
RICE LAKE      PTSUNNY   72  55  54 W15       29.77S
LADYSMITH      MOSUNNY   72  56  57 W15       29.75F
EAU CLAIRE     NOT AVBL
MENOMONIE      PTCLDY    75  56  51 W13       29.76F
NEW RICHMOND   MOSUNNY   74  55  51 W15G21    29.77F
OSCEOLA        MOSUNNY   73  57  57 W12G17    29.79F
$$

WIZ003>005-009-010-017-018-202000-
NORTH CENTRAL WISCONSIN

CITY           SKY/WX    TMP DP  RH WIND       PRES   REMARKS
WOODRUFF       MOSUNNY   71  58  62 NW10G20   29.72F
RHINELANDER    PTSUNNY   69  56  62 N9        29.72S
EAGLE RIVER    CLOUDY    70  53  56 W14G22    29.70F
LAND O LAKES   CLOUDY    66  55  68 W7        29.72F
PHILLIPS       MOSUNNY   69  56  62 W8        29.72F
TOMAHAWK       MOSUNNY   72  55  56 W12G20    29.72R
MEDFORD        MOSUNNY   71  56  59 W15       29.74R
MERRILL        MOSUNNY   74  58  59 W13G18    29.71S
$$

WIZ029-030-035-036-043>047-202000-
CENTRAL WISCONSIN

CITY           SKY/WX    TMP DP  RH WIND       PRES   REMARKS
WAUSAU         PTSUNNY   74  58  57 W17G23    29.69F
MOSINEE        MOSUNNY   72  63  73 W13G18    29.72F
MARSHFIELD     PTSUNNY   75  59  57 W15G25    29.73F
STEVENS POINT  CLOUDY    70  62  74 W8        29.72F
WAUPACA        CLOUDY    72  65  77 SW8       29.73F
WAUTOMA        NOT AVBL
WISC RAPIDS    CLOUDY    74  63  68 W10       29.74S
CAMP DOUGLAS   NOT AVBL
$$

WIZ011>013-019>022-031-037>040-048>050-202000-
NORTHEAST WISCONSIN

CITY           SKY/WX    TMP DP  RH WIND       PRES   REMARKS
ANTIGO         PTSUNNY   71  59  64 W9G18     29.71R
STURGEON BAY   CLOUDY    70  63  78 SW13      29.67F
GREEN BAY      CLOUDY    71  64  78 SW9       29.70F
MANITOWOC      NOT AVBL
APPLETON       CLOUDY    70  61  73 SW14      29.74S
CLINTONVILLE   CLOUDY    72  61  68 W9        29.70S
OSHKOSH        CLOUDY    71  64  78 SW8G16    29.75R
$$

WIZ032>034-041-042-053>061-202000-
SOUTHWEST WISCONSIN

CITY           SKY/WX    TMP DP  RH WIND       PRES   REMARKS
LA CROSSE      MOSUNNY   76  62  62 NW8       29.75F
SPARTA         PTSUNNY   74  61  62 W10       29.76F
VIROQUA        FAIR      74  64  70 NW10      29.78F
BOSCOBEL       PTSUNNY   76  64  66 SW10      29.78S
PRAIRIE DU CHI PTSUNNY   73  62  69 S3        29.78F
PLATTEVILLE    FAIR      73  64  73 SW14G21   29.83S
$$

WIZ056-057-062-063-064-067-068-202000-
SOUTH CENTRAL WISCONSIN

CITY           SKY/WX    TMP DP  RH WIND       PRES   REMARKS
BARABOO/DELLS  CLOUDY    68  63  84 W6        29.77F
LONE ROCK      NOT AVBL
WATERTOWN      CLOUDY    74  66  76 SW15G22   29.77F
MADISON        LGT RAIN  72  64  76 SW6       29.78F
MIDDLETON      CLOUDY    72  64  77 SW6       29.79F
MONROE         LGT RAIN  73  64  73 SW15G24   29.81F
JANESVILLE     LGT RAIN  75  63  64 W18G24    29.80F
$$

WIZ051-052-058>065-066-070>072-202000-
SOUTHEAST WISCONSIN

CITY           SKY/WX    TMP DP  RH WIND       PRES   REMARKS
MILWAUKEE      PTSUNNY   78  61  55 SW16G23   29.78S HX  80
WAUKESHA       PTSUNNY   73  64  73 SW14G22   29.79F
MILWAUKEE/TIMM NOT AVBL
RACINE         HVY RAIN  70  65  84 W13G24    29.82S VSB 3/4
BURLINGTON     LGT RAIN  69  64  84 W9G21     29.81R
KENOSHA        CLOUDY    76  65  68 W13G22    29.81F
FOND DU LAC    CLOUDY    72  63  73 W9G22     29.75F
SHEBOYGAN      CLOUDY    75  63  66 SW18      29.74F
WEST BEND      CLOUDY    75  63  64 SW15G22   29.77S
JUNEAU         DRIZZLE   71  63  74 W13G18    29.78F
$$

LSZ147-162-202000-
LAKE SUPERIOR

STATION/POSITION TIME  TEMP    WIND        PRES    WAVE
                       AIR SEA DIR/SP/G            HT/PER
                 (UTC) (F)     (DEG/KT/KT) (MB)    (FT/S)
W MID LAKE BUOY  1750   53 48  260/ 12/ 14 1004.0R   2/ 4
DEVILS ISLAND    1800   56     260/ 18/ 20 1005.8R
PORT WING        1800   59     250/ 11/ 16 1007.1
SAXON HARBOR     1800   64     310/ 12/ 16 1006.4R
$$

LMZ867-665-643>646-202000-
LAKE MICHIGAN

STATION/POSITION TIME  TEMP    WIND        PRES    WAVE
                       AIR SEA DIR/SP/G            HT/PER
                 (UTC) (F)     (DEG/KT/KT) (MB)    (FT/S)
N MID LAKE BUOY  1750   60 58  210/ 19/ 23 1003.3F   6/ 7
NORTHPORT PIER   1800   73     250/  4/ 15 1003.7F
SISTER BAY       1727          210/ 13/ 15   N/A
KEWAUNEE LAKESHO 1800   71     260/ 11/ 15 1005.0F
SHEBOYGAN LAKESH 1800   72 53  230/ 15/ 18 1007.0R
PORT WASHINGTON  1800   76     230/ 12/ 16 1008.1R
ATWATER BUOY     1800   72     230/ 19/ 25 1009.7R
MILWAUKEE LAKESH 1800   76     250/ 20/ 25   N/A
S MID LAKE BUOY  1750   65 63  200/ 16/ 19 1009.3F   4/ 6
KENOSHA   LAKESH 1800   76     220/ 14/ 20 1009.5S
$$

TC  - TEMPERATURE IN CELSIUS
VSB - VISIBILITY IN STATUTE MILES
WCI - WIND CHILL INDEX
HX  - HEAT INDEX




USA.gov is the U.S. government's official web portal to all federal, state and local government web resources and services.